GFSNGP_500_temp_132.txt.gz
Temp
-9 -10 -11 -11 -10 -11 -11 -11 -10 -10 -10 -10 -10 -10 -10 -9 -9 -9 -9 -9 -8 -8 -7 -7 -7 -8 -8 -7 -6 -6 -7 -7 -7 -7 -7 -7 -7 -7 -7 -7 -7 -7 -7 -7
-9 -9 -9 -9 -10 -10 -11 -11 -11 -11 -11 -10 -10 -10 -10 -10 -10 -9 -9 -8 -9 -8 -8 -8 -8 -9 -8 -7 -8 -7 -7 -7 -7 -6 -7 -7 -7 -7 -8 -8 -7 -7 -7 -7
-9 -9 -9 -9 -10 -11 -11 -11 -11 -11 -12 -11 -11 -10 -10 -9 -10 -10 -9 -9 -9 -9 -8 -8 -8 -8 -7 -7 -6 -6 -5 -6 -6 -7 -6 -6 -6 -6 -7 -8 -7 -7 -7 -7
-9 -10 -9 -10 -11 -11 -11 -11 -11 -10 -11 -11 -11 -11 -10 -11 -10 -10 -9 -10 -9 -9 -9 -8 -8 -8 -7 -7 -6 -6 -6 -6 -6 -6 -6 -7 -7 -6 -7 -7 -7 -6 -7 -7
-9 -10 -10 -10 -11 -11 -10 -10 -10 -11 -11 -11 -11 -11 -10 -10 -11 -10 -9 -9 -10 -10 -8 -8 -8 -8 -7 -7 -8 -7 -6 -6 -6 -6 -6 -7 -7 -6 -6 -6 -7 -7 -7 -6
-10 -10 -10 -12 -11 -10 -10 -10 -11 -11 -11 -11 -11 -10 -10 -10 -10 -11 -10 -10 -11 -10 -9 -9 -9 -8 -8 -7 -6 -7 -7 -7 -7 -6 -6 -7 -7 -6 -6 -6 -6 -6 -7 -7
-11 -10 -10 -10 -11 -11 -11 -11 -11 -11 -11 -11 -10 -10 -10 -10 -10 -12 -12 -12 -11 -10 -10 -9 -9 -9 -8 -7 -7 -7 -7 -6 -6 -6 -6 -6 -6 -6 -7 -7 -7 -6 -6 -6
-12 -12 -11 -11 -12 -11 -11 -11 -11 -11 -11 -11 -11 -11 -11 -11 -12 -12 -12 -12 -12 -12 -10 -9 -8 -8 -9 -8 -7 -6 -6 -7 -6 -7 -7 -6 -6 -6 -6 -7 -7 -7 -6 -6
-12 -12 -12 -12 -11 -11 -11 -11 -11 -10 -11 -11 -10 -11 -11 -11 -12 -12 -12 -11 -12 -11 -10 -8 -9 -8 -9 -8 -8 -7 -6 -6 -6 -6 -6 -6 -6 -6 -7 -7 -7 -7 -7 -7
-13 -12 -12 -12 -11 -12 -11 -11 -11 -11 -11 -10 -10 -10 -11 -11 -13 -12 -12 -12 -11 -11 -10 -9 -10 -9 -9 -9 -9 -8 -8 -6 -6 -7 -7 -7 -6 -7 -6 -7 -7 -7 -7 -7
-12 -12 -12 -12 -12 -12 -11 -12 -11 -11 -11 -11 -11 -11 -11 -12 -13 -12 -12 -12 -11 -11 -10 -11 -11 -10 -10 -10 -10 -9 -9 -8 -8 -8 -8 -7 -7 -7 -7 -7 -8 -9 -9 -9
-13 -12 -12 -13 -13 -12 -12 -11 -11 -12 -11 -11 -11 -10 -11 -12 -12 -12 -12 -12 -12 -11 -11 -11 -11 -10 -11 -10 -10 -10 -9 -9 -9 -9 -10 -9 -9 -9 -9 -9 -10 -11 -11 -11
-13 -12 -13 -12 -12 -12 -12 -11 -12 -12 -11 -12 -11 -10 -11 -11 -12 -12 -12 -12 -12 -11 -11 -12 -12 -12 -11 -11 -11 -11 -10 -10 -10 -11 -11 -12 -12 -12 -12 -12 -11 -11 -11 -10
-12 -13 -12 -12 -12 -12 -12 -12 -12 -12 -12 -12 -11 -11 -12 -12 -12 -13 -13 -13 -13 -12 -12 -12 -12 -12 -12 -11 -12 -12 -12 -12 -12 -12 -12 -12 -11 -11 -11 -11 -10 -10 -10 -10
-13 -13 -13 -13 -12 -12 -13 -13 -13 -12 -12 -12 -12 -12 -12 -13 -13 -13 -13 -13 -13 -13 -13 -13 -12 -13 -14 -13 -12 -12 -12 -12 -12 -12 -12 -11 -11 -10 -11 -11 -11 -11 -11 -11
-13 -13 -12 -13 -13 -13 -13 -12 -13 -12 -12 -12 -12 -12 -12 -13 -13 -13 -13 -13 -13 -13 -13 -13 -12 -12 -13 -13 -12 -12 -12 -12 -12 -12 -12 -12 -11 -11 -12 -12 -12 -12 -12 -12
-13 -13 -12 -13 -13 -12 -13 -12 -12 -13 -13 -13 -13 -13 -12 -13 -13 -13 -13 -13 -13 -13 -13 -13 -14 -13 -13 -13 -13 -13 -12 -13 -13 -13 -12 -12 -12 -12 -12 -12 -12 -12 -12 -12
-14 -13 -12 -12 -12 -12 -12 -12 -13 -13 -13 -13 -13 -13 -13 -13 -13 -13 -14 -14 -13 -13 -13 -13 -13 -13 -13 -13 -13 -13 -13 -13 -13 -13 -13 -12 -12 -12 -12 -12 -12 -12 -12 -12
-14 -13 -14 -13 -12 -12 -12 -12 -13 -13 -13 -13 -13 -13 -13 -13 -13 -14 -14 -14 -14 -14 -14 -14 -13 -13 -13 -13 -13 -13 -13 -13 -13 -13 -12 -12 -12 -12 -12 -12 -12 -12 -12 -12
-13 -13 -13 -13 -12 -12 -12 -12 -12 -12 -12 -13 -13 -13 -13 -13 -13 -14 -14 -14 -14 -14 -14 -13 -13 -13 -13 -13 -13 -13 -13 -13 -13 -13 -13 -13 -13 -12 -12 -12 -12 -12 -12 -12
-14 -13 -13 -13 -12 -12 -12 -12 -12 -12 -12 -13 -13 -13 -13 -13 -13 -14 -14 -14 -14 -14 -14 -13 -13 -13 -13 -13 -13 -13 -13 -13 -13 -13 -13 -13 -13 -13 -13 -13 -13 -12 -13 -13
-14 -14 -14 -13 -13 -13 -12 -12 -13 -13 -13 -13 -13 -13 -13 -13 -13 -13 -14 -14 -14 -14 -14 -13 -13 -13 -13 -13 -13 -13 -13 -13 -13 -13 -13 -13 -13 -13 -13 -13 -13 -13 -13 -13
-14 -14 -13 -13 -13 -13 -12 -12 -13 -13 -13 -13 -13 -13 -13 -13 -13 -13 -13 -13 -14 -14 -13 -13 -14 -14 -13 -14 -14 -14 -14 -14 -13 -13 -13 -13 -13 -13 -13 -13 -13 -13 -13 -13
-14 -14 -14 -14 -13 -13 -13 -13 -13 -14 -14 -14 -13 -13 -13 -13 -13 -13 -13 -13 -14 -13 -13 -14 -14 -14 -14 -14 -14 -14 -14 -14 -14 -13 -13 -14 -14 -13 -13 -13 -13 -13 -14 -14
-14 -14 -14 -14 -14 -14 -14 -14 -14 -14 -14 -15 -14 -14 -13 -13 -14 -13 -13 -13 -14 -13 -14 -14 -14 -14 -14 -14 -14 -14 -14 -14 -14 -14 -14 -14 -14 -14 -14 -14 -13 -14 -14 -14
-14 -14 -14 -14 -14 -14 -14 -14 -14 -14 -15 -15 -15 -14 -14 -14 -14 -14 -14 -13 -14 -14 -14 -14 -14 -14 -14 -14 -14 -14 -14 -14 -14 -14 -14 -14 -14 -14 -14 -14 -14 -14 -14 -15
-13 -14 -14 -14 -14 -14 -14 -14 -14 -15 -15 -15 -15 -15 -15 -15 -15 -14 -14 -14 -14 -14 -14 -14 -14 -14 -14 -14 -14 -14 -14 -14 -14 -14 -14 -14 -14 -14 -15 -15 -15 -15 -15 -16

GFSNGP_500_temp_138.txt.gz
Temp
-12 -12 -12 -11 -11 -10 -10 -10 -9 -9 -9 -9 -10 -9 -9 -9 -9 -10 -10 -10 -10 -10 -9 -9 -8 -8 -8 -8 -8 -8 -8 -8 -8 -7 -8 -7 -7 -7 -7 -6 -7 -7 -6 -6
-11 -11 -12 -12 -12 -11 -11 -10 -9 -9 -9 -9 -9 -9 -9 -9 -9 -9 -9 -9 -9 -9 -9 -9 -9 -9 -8 -8 -8 -7 -7 -8 -8 -7 -7 -7 -7 -7 -7 -6 -6 -7 -7 -7
-11 -11 -11 -11 -11 -10 -10 -10 -10 -9 -10 -10 -9 -9 -10 -10 -10 -10 -9 -9 -8 -8 -8 -9 -8 -8 -8 -8 -8 -7 -8 -7 -7 -7 -7 -6 -7 -6 -7 -7 -6 -6 -6 -7
-11 -11 -10 -10 -10 -10 -9 -9 -9 -9 -9 -9 -10 -10 -10 -11 -10 -9 -9 -9 -9 -8 -8 -7 -7 -7 -7 -7 -8 -8 -7 -7 -7 -6 -6 -6 -6 -6 -6 -6 -7 -6 -6 -6
-11 -11 -11 -10 -10 -10 -9 -9 -9 -9 -9 -10 -10 -10 -10 -9 -10 -10 -10 -9 -9 -9 -9 -9 -8 -7 -7 -8 -8 -9 -8 -7 -7 -7 -7 -6 -5 -5 -6 -6 -7 -6 -6 -6
-11 -11 -11 -11 -11 -10 -9 -9 -10 -9 -9 -9 -9 -9 -9 -9 -9 -10 -10 -10 -10 -10 -10 -10 -9 -8 -8 -8 -8 -8 -7 -7 -6 -6 -6 -6 -6 -6 -6 -6 -6 -6 -6 -7
-11 -11 -11 -11 -11 -10 -10 -10 -10 -9 -9 -9 -9 -9 -9 -9 -10 -10 -10 -10 -10 -10 -10 -10 -10 -10 -9 -8 -8 -8 -7 -6 -6 -5 -5 -5 -5 -6 -6 -5 -6 -6 -6 -6
-12 -11 -11 -11 -11 -11 -11 -10 -10 -9 -9 -9 -9 -9 -9 -9 -10 -10 -10 -11 -11 -10 -11 -11 -11 -11 -11 -10 -9 -8 -7 -6 -5 -5 -5 -5 -5 -5 -5 -7 -6 -6 -7 -7
-12 -11 -11 -11 -12 -12 -11 -11 -9 -9 -10 -9 -9 -9 -9 -9 -9 -8 -9 -10 -10 -11 -11 -12 -12 -12 -11 -10 -9 -8 -7 -6 -5 -6 -5 -6 -6 -6 -6 -6 -7 -7 -7 -6
-12 -12 -12 -12 -12 -12 -11 -10 -10 -10 -10 -10 -9 -10 -9 -9 -8 -8 -10 -11 -11 -11 -12 -13 -12 -11 -11 -11 -10 -9 -9 -7 -6 -6 -6 -7 -7 -6 -7 -7 -7 -7 -7 -7
-13 -12 -12 -12 -13 -12 -11 -11 -10 -10 -10 -9 -10 -10 -10 -9 -9 -9 -10 -11 -12 -12 -13 -13 -12 -12 -12 -12 -11 -10 -9 -9 -7 -7 -7 -7 -6 -7 -7 -8 -7 -7 -7 -7
-14 -13 -13 -13 -13 -12 -12 -11 -11 -10 -10 -10 -10 -10 -10 -10 -10 -11 -11 -11 -12 -12 -13 -13 -12 -12 -12 -12 -11 -10 -10 -9 -9 -8 -8 -8 -7 -7 -7 -8 -7 -7 -7 -7
-13 -13 -14 -13 -13 -12 -12 -11 -11 -10 -10 -10 -10 -10 -10 -11 -11 -12 -12 -12 -12 -12 -12 -13 -12 -12 -12 -12 -11 -10 -10 -10 -10 -10 -10 -9 -8 -8 -8 -8 -7 -7 -7 -8
-13 -14 -14 -13 -13 -12 -12 -11 -11 -10 -10 -10 -10 -11 -11 -11 -11 -12 -12 -12 -12 -12 -12 -12 -12 -12 -12 -12 -12 -11 -11 -11 -10 -11 -10 -10 -10 -10 -9 -9 -9 -9 -9 -9
-13 -14 -13 -13 -13 -12 -12 -12 -11 -11 -11 -11 -11 -11 -11 -11 -12 -12 -12 -12 -12 -12 -12 -12 -12 -12 -13 -12 -12 -12 -11 -11 -11 -11 -12 -13 -13 -13 -12 -12 -12 -12 -12 -12
-13 -13 -13 -13 -13 -13 -13 -12 -11 -11 -11 -11 -11 -11 -12 -12 -12 -12 -12 -12 -12 -13 -13 -13 -14 -13 -13 -13 -12 -12 -12 -13 -12 -12 -14 -14 -14 -14 -14 -13 -13 -12 -12 -12
-13 -13 -13 -14 -13 -13 -13 -12 -12 -12 -12 -12 -12 -12 -12 -12 -12 -12 -12 -12 -13 -13 -13 -13 -14 -14 -13 -13 -13 -13 -13 -13 -13 -13 -13 -13 -13 -13 -12 -12 -12 -12 -12 -12
-13 -13 -14 -13 -13 -13 -13 -12 -12 -12 -12 -12 -12 -13 -12 -12 -12 -13 -13 -13 -13 -13 -13 -13 -14 -14 -14 -14 -14 -14 -14 -13 -13 -13 -13 -12 -13 -12 -12 -12 -13 -12 -12 -12
-14 -14 -14 -14 -14 -14 -13 -13 -12 -12 -12 -12 -13 -12 -12 -12 -13 -13 -13 -13 -13 -13 -13 -14 -14 -14 -14 -14 -14 -14 -14 -13 -13 -13 -13 -13 -13 -13 -13 -12 -12 -12 -12 -12
-14 -14 -14 -14 -13 -14 -13 -13 -12 -12 -12 -12 -12 -12 -12 -12 -12 -13 -13 -13 -13 -13 -14 -14 -14 -14 -14 -14 -14 -14 -14 -14 -13 -13 -13 -13 -13 -13 -13 -13 -13 -13 -13 -13
-14 -14 -14 -14 -14 -14 -14 -13 -12 -12 -12 -12 -12 -12 -12 -12 -12 -12 -12 -13 -13 -13 -13 -13 -13 -13 -13 -13 -13 -13 -13 -13 -13 -14 -14 -13 -13 -13 -13 -13 -13 -13 -13 -13
-14 -14 -14 -14 -14 -14 -13 -13 -13 -12 -13 -12 -12 -12 -12 -12 -12 -12 -12 -12 -13 -13 -13 -13 -13 -13 -13 -13 -13 -13 -13 -13 -13 -13 -13 -13 -13 -13 -14 -13 -13 -13 -13 -13
-14 -14 -14 -14 -14 -14 -13 -13 -13 -13 -13 -13 -12 -12 -12 -13 -13 -12 -12 -12 -12 -13 -13 -14 -13 -13 -13 -13 -13 -13 -13 -13 -13 -14 -14 -14 -14 -14 -14 -14 -13 -13 -13 -13
-15 -14 -14 -15 -14 -14 -14 -13 -14 -14 -13 -13 -13 -13 -12 -13 -13 -13 -13 -13 -13 -12 -13 -14 -14 -14 -14 -14 -14 -13 -14 -14 -14 -14 -14 -14 -14 -14 -14 -14 -14 -14 -14 -14
-14 -14 -14 -14 -14 -13 -13 -13 -13 -13 -14 -13 -13 -13 -13 -13 -13 -13 -13 -13 -13 -13 -13 -13 -14 -14 -14 -14 -14 -14 -14 -14 -14 -14 -14 -14 -14 -14 -14 -14 -14 -14 -14 -14
-14 -14 -15 -14 -13 -13 -13 -13 -13 -13 -14 -14 -14 -14 -14 -14 -13 -14 -14 -14 -13 -13 -13 -13 -13 -14 -14 -14 -14 -14 -14 -14 -15 -15 -15 -15 -15 -14 -14 -14 -14 -14 -14 -14
-14 -14 -14 -14 -14 -14 -14 -14 -14 -13 -14 -14 -14 -14 -14 -14 -14 -13 -14 -14 -14 -14 -14 -14 -14 -14 -14 -14 -14 -14 -14 -14 -15 -15 -15 -15 -15 -15 -15 -15 -15 -15 -15 -15

GFSNGP_500_temp_144.txt.gz
Temp
-12 -12 -12 -12 -12 -12 -12 -12 -11 -11 -11 -11 -10 -9 -9 -9 -9 -8 -8 -8 -8 -8 -8 -8 -8 -8 -8 -8 -8 -7 -8 -8 -7 -7 -7 -7 -7 -6 -7 -7 -6 -6 -7 -6
-12 -12 -12 -12 -12 -12 -11 -11 -11 -11 -11 -11 -10 -10 -9 -9 -9 -8 -8 -8 -8 -8 -8 -8 -8 -8 -8 -8 -8 -8 -8 -7 -7 -7 -7 -8 -8 -7 -7 -7 -7 -6 -6 -6
-12 -12 -12 -12 -11 -11 -11 -11 -10 -10 -10 -9 -9 -9 -9 -8 -8 -8 -7 -7 -8 -8 -8 -8 -9 -9 -8 -8 -8 -8 -8 -8 -8 -7 -7 -8 -7 -7 -6 -6 -6 -6 -6 -6
-12 -12 -12 -12 -11 -11 -11 -11 -10 -9 -9 -9 -8 -8 -8 -7 -7 -7 -7 -8 -8 -8 -8 -8 -8 -8 -8 -8 -8 -9 -8 -8 -8 -8 -7 -7 -7 -7 -7 -6 -6 -5 -6 -6
-12 -11 -12 -12 -11 -12 -11 -10 -9 -9 -9 -8 -8 -8 -8 -7 -7 -8 -8 -8 -8 -8 -8 -8 -8 -8 -8 -8 -8 -8 -8 -8 -8 -7 -7 -7 -7 -6 -7 -7 -7 -6 -6 -6
-12 -12 -12 -12 -11 -11 -11 -10 -10 -9 -9 -8 -8 -8 -8 -8 -8 -7 -7 -8 -8 -8 -8 -8 -8 -8 -8 -8 -8 -8 -8 -8 -8 -7 -7 -7 -7 -6 -6 -6 -7 -6 -6 -6
-12 -12 -12 -12 -12 -11 -11 -10 -10 -10 -9 -9 -9 -8 -8 -8 -8 -8 -8 -8 -8 -8 -8 -9 -9 -9 -9 -9 -9 -8 -8 -8 -8 -7 -7 -6 -7 -7 -7 -7 -6 -7 -6 -6
-13 -13 -13 -12 -12 -11 -11 -11 -11 -10 -9 -9 -9 -9 -8 -8 -8 -8 -8 -7 -8 -8 -8 -9 -9 -10 -10 -9 -9 -9 -9 -9 -8 -8 -7 -6 -6 -7 -7 -7 -6 -6 -6 -6
-12 -12 -12 -13 -12 -12 -12 -12 -11 -11 -10 -9 -9 -9 -8 -8 -8 -8 -8 -8 -7 -7 -8 -8 -8 -9 -9 -10 -10 -10 -10 -10 -9 -9 -7 -7 -7 -7 -7 -6 -6 -6 -6 -6
-13 -13 -13 -13 -13 -13 -13 -12 -12 -11 -10 -9 -9 -8 -8 -8 -8 -8 -8 -8 -7 -7 -7 -7 -8 -8 -9 -10 -10 -10 -10 -10 -10 -9 -8 -8 -7 -7 -6 -6 -6 -6 -6 -6
-13 -13 -13 -13 -13 -13 -13 -13 -12 -11 -10 -9 -9 -9 -8 -8 -8 -8 -8 -8 -8 -8 -8 -8 -9 -10 -10 -11 -11 -11 -11 -11 -11 -10 -9 -9 -7 -7 -6 -6 -6 -6 -5 -6
-13 -13 -13 -13 -13 -13 -13 -13 -12 -12 -11 -10 -9 -9 -9 -9 -9 -9 -9 -9 -9 -9 -9 -9 -10 -10 -11 -11 -11 -11 -12 -12 -11 -10 -10 -9 -8 -8 -7 -7 -6 -6 -5 -5
-13 -13 -13 -13 -13 -13 -13 -13 -12 -12 -11 -10 -10 -9 -9 -9 -9 -9 -10 -10 -10 -10 -10 -10 -11 -11 -11 -12 -12 -12 -12 -11 -11 -11 -10 -9 -8 -8 -8 -8 -7 -7 -6 -6
-13 -13 -13 -13 -13 -13 -13 -13 -12 -12 -11 -11 -10 -10 -10 -10 -9 -9 -10 -10 -10 -10 -11 -11 -11 -12 -12 -12 -12 -12 -12 -11 -11 -11 -10 -10 -10 -10 -8 -8 -7 -7 -7 -7
-13 -13 -13 -13 -13 -13 -13 -13 -12 -12 -12 -11 -11 -10 -10 -10 -10 -10 -10 -10 -10 -11 -11 -11 -12 -12 -12 -12 -12 -12 -12 -12 -11 -11 -11 -10 -10 -10 -10 -10 -10 -10 -9 -10
-13 -13 -13 -13 -13 -13 -13 -13 -12 -12 -11 -11 -11 -11 -11 -11 -11 -11 -10 -10 -11 -11 -11 -12 -12 -12 -12 -12 -12 -13 -13 -12 -12 -12 -12 -12 -12 -11 -11 -11 -10 -10 -10 -10
-14 -14 -13 -13 -13 -12 -12 -12 -13 -12 -12 -11 -11 -11 -11 -11 -11 -11 -11 -11 -11 -11 -11 -12 -12 -12 -13 -13 -13 -13 -13 -13 -13 -13 -13 -13 -13 -13 -13 -12 -14 -14 -15 -15
-13 -13 -13 -13 -12 -12 -12 -12 -13 -12 -12 -12 -12 -12 -12 -12 -11 -11 -11 -11 -11 -11 -11 -11 -12 -12 -13 -13 -13 -13 -13 -13 -13 -13 -13 -13 -13 -13 -13 -13 -14 -14 -14 -14
-14 -13 -13 -13 -13 -13 -13 -13 -12 -13 -12 -12 -12 -12 -12 -12 -12 -12 -12 -12 -12 -11 -12 -12 -12 -12 -13 -13 -13 -13 -13 -14 -14 -14 -13 -13 -13 -13 -13 -13 -13 -13 -13 -13
-13 -13 -13 -14 -14 -14 -13 -13 -13 -13 -12 -12 -13 -13 -12 -12 -12 -12 -11 -11 -12 -12 -12 -12 -12 -13 -13 -13 -13 -14 -14 -14 -14 -14 -13 -13 -13 -13 -13 -13 -13 -13 -13 -13
-14 -13 -13 -13 -14 -13 -14 -14 -13 -13 -13 -13 -13 -13 -13 -12 -12 -12 -11 -11 -11 -12 -12 -12 -12 -12 -13 -13 -13 -13 -13 -13 -13 -13 -13 -13 -13 -13 -13 -13 -13 -13 -13 -13
-14 -14 -13 -13 -13 -13 -13 -14 -14 -14 -13 -13 -13 -13 -13 -12 -12 -12 -12 -12 -12 -12 -12 -12 -12 -12 -12 -12 -13 -13 -13 -13 -13 -13 -13 -13 -14 -14 -13 -13 -13 -13 -14 -14
-14 -14 -13 -14 -14 -13 -13 -14 -14 -13 -13 -13 -13 -13 -13 -13 -12 -12 -12 -12 -12 -12 -12 -12 -12 -12 -12 -12 -12 -12 -13 -13 -13 -13 -13 -13 -14 -14 -14 -14 -14 -14 -14 -14
-14 -14 -14 -14 -13 -13 -14 -14 -15 -14 -13 -13 -13 -13 -13 -13 -13 -13 -12 -13 -12 -12 -12 -12 -12 -12 -12 -12 -13 -13 -13 -13 -13 -13 -13 -13 -14 -14 -14 -14 -14 -14 -14 -14
-14 -14 -14 -14 -14 -14 -14 -14 -14 -15 -14 -14 -13 -13 -13 -13 -13 -13 -13 -13 -13 -13 -13 -13 -13 -13 -12 -12 -13 -13 -13 -13 -13 -13 -13 -13 -14 -14 -14 -14 -14 -14 -14 -14
-14 -14 -14 -14 -14 -14 -14 -14 -14 -14 -15 -14 -14 -14 -13 -13 -13 -13 -13 -13 -13 -13 -13 -13 -13 -13 -13 -13 -13 -13 -13 -13 -13 -13 -13 -13 -13 -14 -14 -14 -14 -14 -14 -14
-14 -14 -14 -14 -14 -14 -14 -14 -14 -14 -14 -15 -15 -14 -14 -14 -14 -14 -13 -13 -13 -13 -14 -14 -13 -14 -14 -14 -14 -14 -14 -13 -13 -13 -13 -13 -14 -14 -14 -14 -14 -14 -14 -14

GFSNGP_500_temp_147.txt.gz
Temp
-11 -11 -10 -10 -11 -11 -10 -10 -10 -10 -10 -10 -10 -9 -11 -11 -8 -8 -8 -8 -8 -8 -8 -8 -7 -7 -7 -8 -8 -8 -8 -8 -8 -7 -7 -6 -6 -7 -6 -7 -7 -7 -7 -7
-12 -11 -11 -10 -10 -10 -10 -10 -10 -10 -10 -10 -10 -11 -11 -11 -9 -9 -8 -8 -8 -8 -8 -7 -7 -7 -7 -8 -8 -8 -8 -8 -8 -7 -7 -7 -7 -7 -7 -7 -6 -6 -7 -7
-12 -11 -10 -11 -10 -10 -11 -11 -11 -10 -10 -10 -11 -10 -11 -9 -9 -8 -8 -8 -8 -8 -8 -8 -8 -8 -8 -8 -8 -8 -8 -8 -8 -8 -8 -7 -7 -7 -7 -7 -7 -6 -6 -6
-12 -11 -11 -11 -11 -11 -11 -11 -11 -11 -11 -11 -11 -10 -10 -9 -8 -8 -8 -8 -7 -7 -7 -8 -8 -8 -8 -8 -8 -8 -8 -8 -8 -8 -8 -7 -7 -7 -7 -7 -7 -7 -7 -7
-12 -12 -11 -11 -10 -10 -11 -11 -12 -12 -10 -10 -9 -9 -9 -9 -9 -7 -7 -7 -7 -7 -7 -7 -8 -8 -8 -8 -8 -8 -8 -8 -8 -8 -8 -8 -7 -7 -7 -7 -7 -7 -7 -7
-13 -12 -11 -10 -11 -11 -11 -10 -10 -10 -10 -9 -9 -9 -9 -8 -8 -8 -7 -7 -7 -7 -7 -7 -8 -8 -8 -8 -8 -8 -8 -8 -8 -8 -8 -8 -8 -7 -7 -7 -7 -7 -6 -7
-12 -11 -10 -11 -10 -12 -11 -11 -11 -10 -10 -9 -9 -9 -8 -8 -8 -8 -7 -7 -7 -7 -7 -8 -8 -8 -8 -8 -8 -8 -8 -8 -8 -7 -7 -7 -7 -7 -7 -7 -6 -6 -6 -7
-12 -12 -12 -11 -11 -12 -12 -11 -11 -10 -10 -10 -9 -9 -9 -8 -8 -7 -7 -7 -7 -7 -7 -8 -8 -8 -8 -8 -8 -9 -9 -9 -8 -8 -7 -7 -7 -6 -7 -6 -6 -6 -6 -6
-12 -12 -12 -12 -12 -12 -11 -11 -11 -10 -10 -10 -10 -9 -9 -8 -8 -8 -8 -7 -8 -8 -7 -7 -7 -8 -8 -8 -8 -8 -9 -9 -9 -8 -8 -7 -7 -7 -6 -6 -6 -6 -5 -6
-13 -13 -12 -11 -12 -12 -11 -11 -11 -11 -10 -10 -9 -9 -9 -9 -8 -8 -8 -8 -8 -8 -8 -7 -7 -7 -8 -8 -9 -9 -9 -9 -9 -8 -8 -8 -8 -7 -7 -6 -6 -6 -6 -5
-12 -13 -12 -12 -12 -12 -12 -11 -11 -11 -11 -10 -9 -9 -9 -9 -8 -8 -8 -8 -8 -8 -8 -8 -7 -7 -8 -8 -8 -9 -9 -9 -9 -9 -8 -8 -8 -8 -7 -7 -7 -6 -6 -6
-11 -12 -12 -12 -12 -12 -12 -12 -12 -12 -11 -11 -10 -9 -9 -9 -9 -9 -9 -9 -8 -8 -8 -8 -8 -8 -9 -9 -9 -10 -10 -10 -10 -10 -10 -9 -8 -9 -9 -8 -8 -7 -6 -6
-12 -11 -12 -12 -13 -12 -12 -13 -12 -12 -11 -12 -11 -10 -10 -9 -9 -9 -9 -9 -9 -9 -9 -10 -10 -10 -10 -10 -10 -10 -10 -10 -10 -11 -10 -10 -9 -9 -8 -8 -9 -8 -8 -6
-13 -12 -12 -13 -12 -13 -13 -12 -12 -12 -12 -12 -12 -11 -10 -10 -10 -9 -9 -9 -10 -10 -10 -10 -10 -10 -10 -11 -11 -11 -11 -11 -10 -11 -11 -11 -10 -10 -10 -9 -8 -8 -9 -7
-13 -13 -13 -13 -13 -13 -13 -12 -12 -12 -12 -12 -12 -11 -11 -10 -10 -9 -9 -9 -10 -10 -10 -10 -10 -11 -11 -11 -11 -12 -12 -11 -11 -11 -11 -11 -11 -11 -11 -10 -10 -9 -8 -8
-13 -13 -13 -14 -13 -12 -13 -12 -12 -12 -12 -12 -12 -11 -11 -11 -10 -10 -10 -10 -10 -10 -10 -10 -10 -11 -11 -12 -12 -12 -12 -12 -12 -12 -11 -12 -12 -13 -12 -11 -11 -10 -10 -10
-12 -13 -14 -14 -12 -12 -13 -12 -12 -13 -12 -12 -12 -12 -11 -11 -11 -10 -10 -10 -11 -11 -10 -11 -11 -11 -12 -12 -12 -12 -13 -13 -13 -13 -13 -13 -13 -13 -13 -14 -15 -15 -13 -12
-13 -13 -13 -12 -12 -12 -12 -12 -12 -13 -12 -12 -12 -12 -12 -11 -11 -11 -11 -11 -11 -11 -11 -11 -11 -11 -12 -12 -12 -13 -13 -13 -13 -13 -13 -13 -13 -13 -13 -14 -14 -14 -14 -15
-12 -13 -13 -13 -13 -12 -12 -13 -13 -12 -12 -12 -12 -12 -12 -12 -12 -11 -11 -11 -11 -11 -11 -11 -11 -12 -12 -12 -13 -13 -13 -13 -13 -13 -13 -13 -13 -13 -13 -13 -13 -13 -13 -13
-13 -13 -13 -12 -12 -13 -13 -13 -13 -13 -12 -13 -12 -12 -12 -12 -12 -12 -12 -12 -12 -11 -11 -12 -12 -12 -12 -12 -13 -13 -13 -13 -14 -14 -13 -13 -13 -13 -13 -13 -13 -13 -13 -13
-13 -13 -13 -12 -12 -12 -13 -13 -13 -12 -13 -13 -13 -12 -12 -12 -13 -12 -12 -12 -12 -11 -12 -12 -12 -12 -12 -12 -12 -12 -13 -13 -13 -14 -14 -13 -13 -13 -13 -14 -13 -13 -13 -13
-12 -12 -12 -12 -12 -13 -13 -13 -13 -13 -14 -13 -13 -13 -13 -13 -13 -12 -12 -12 -11 -11 -11 -11 -12 -12 -12 -12 -12 -12 -12 -13 -13 -13 -13 -13 -13 -13 -14 -14 -14 -13 -13 -13
-13 -13 -12 -12 -12 -13 -13 -13 -14 -14 -14 -13 -13 -13 -13 -13 -13 -12 -12 -12 -12 -12 -12 -12 -12 -12 -12 -12 -12 -12 -12 -12 -13 -13 -13 -13 -13 -13 -13 -13 -13 -13 -14 -14
-13 -13 -13 -13 -13 -13 -13 -13 -14 -14 -14 -14 -14 -13 -13 -13 -13 -13 -13 -12 -12 -12 -12 -12 -12 -12 -12 -12 -13 -13 -13 -13 -13 -13 -13 -13 -13 -13 -13 -13 -13 -13 -14 -14
-13 -13 -13 -13 -13 -13 -13 -13 -13 -13 -14 -14 -14 -13 -13 -13 -13 -12 -12 -13 -13 -13 -12 -12 -12 -12 -12 -12 -13 -13 -13 -13 -13 -13 -13 -13 -13 -13 -13 -13 -14 -14 -14 -14
-13 -13 -13 -13 -13 -13 -13 -13 -14 -13 -13 -14 -14 -13 -13 -13 -13 -13 -13 -13 -13 -13 -13 -13 -13 -13 -13 -13 -13 -13 -13 -13 -13 -13 -14 -14 -13 -13 -13 -14 -14 -14 -14 -14
-14 -14 -13 -13 -13 -14 -13 -13 -14 -14 -14 -13 -13 -13 -13 -13 -13 -13 -13 -13 -13 -13 -14 -13 -13 -13 -13 -13 -13 -13 -13 -13 -13 -13 -13 -13 -13 -14 -14 -14 -14 -14 -14 -14